Regional Weather Roundup
Issued by NWS

Home | Current Version | Previous Version | Text Only | Print | Product List | Glossary On
Versions: 1 2 3 4 5 6 7 8 9 10 11 12 13 14 15 16 17 18 19 20 21 22 23 24 25 26 27
000
ASUS45 KREV 231110
RWRNV
NEVADA REGIONAL WEATHER ROUNDUP
NATIONAL WEATHER SERVICE RENO NV
400 AM PDT SAT JUL 23 2016

NOTE: "FAIR" INDICATES FEW OR NO CLOUDS BELOW 12,000 FEET WITH NO
SIGNIFICANT WEATHER AND/OR OBSTRUCTIONS TO VISIBILITY.

NVZ001-003-004-231200-
WESTERN NEVADA

CITY           SKY/WX    TMP DP  RH WIND       PRES   REMARKS
RENO           CLEAR     60  24  25 SW3       30.21S
CARSON CITY    FAIR      54  25  32 CALM      30.23S
MINDEN         FAIR      46  27  46 S3        30.24S
SLIDE MTN        N/A     54  21  28 SW6         N/A
PYRAMID LAKE     N/A     70 N/A N/A S7          N/A
FALLON         CLEAR     54  21  27 S7        30.14S
LOVELOCK       CLEAR     67  20  16 N9        30.14S
HAWTHORNE      CLEAR     68  23  18 SW5       30.17S
$$

NVZ002-CAZ072-073-231200-
NORTHERN AND CENTRAL SIERRA

CITY           SKY/WX    TMP DP  RH WIND       PRES   REMARKS
S. LAKE TAHOE  CLEAR     38  28  67 S3        30.31F
TRUCKEE        CLEAR     34  23  64 CALM      30.32R
SQUAW VLY 8000 NOT AVBL
SUSANVILLE     CLEAR     54  30  40 W5        30.20F
MAMMOTH LAKES    N/A     56  20  24 CALM      30.34F
BRIDGEPORT     FAIR      40  11  30 CALM      30.33F
$$

NVZ030-031-036-231200-
NORTHERN NEVADA

CITY           SKY/WX    TMP DP  RH WIND       PRES   REMARKS
ELKO           PTCLDY    53  19  26 E3        30.21S
WINNEMUCCA     CLEAR     48  20  32 W6        30.17S
WENDOVER       CLEAR     72  32  23 CALM      30.14S
$$

NVZ035-037-231200-
CENTRAL NEVADA

CITY           SKY/WX    TMP DP  RH WIND       PRES   REMARKS
ELY            PTCLDY    48  20  32 S13       30.25F
EUREKA           N/A     50  16  25 SE7       30.24F
$$

NVZ013-014-231200-
SOUTH CENTRAL NEVADA

CITY           SKY/WX    TMP DP  RH WIND       PRES   REMARKS
TONOPAH        CLEAR     65  12  12 NE6       30.19S
$$

NVZ017-020-022-231200-
SOUTHERN NEVADA

CITY           SKY/WX    TMP DP  RH WIND       PRES   REMARKS
LAS VEGAS      CLEAR     91  23   8 S6        29.82S
N. LAS VEGAS   CLEAR     87  33  14 CALM      29.86S
NELLIS AFB     CLEAR     89  33  13 W3        29.83S
HENDERSON      CLEAR     88  29  12 S16       29.90F
MERCURY        CLEAR     75  27  17 E5        29.96S
$$




USA.gov is the U.S. government's official web portal to all federal, state and local government web resources and services.